JE3XST-13 Weather Reports


Display with metric or nautical units.
time (UTC)temp
F
wind
direction
speed
MPH
gust
MPH
rain 1hr
in
rain 24hr
in
rain mn
in
humidity
%
barometer
mb
20260504081518 60 298 1.0 7.0 0.01 1.17 0.20 79 1009.4
20260504044518 70 235 7.0 10.0 0.00 1.18 0.16 53 1005.3
20260504041518 69 201 6.0 14.0 0.00 1.18 0.16 55 1005.2
20260504034517 69 264 9.0 13.0 0.00 1.18 0.16 56 1005.1
20260504031518 71 266 6.0 18.0 0.00 1.18 0.16 53 1004.7
20260504024518 72 275 13.0 17.0 0.00 1.18 0.16 50 1004.0
20260504021517 71 244 6.0 14.0 0.00 1.18 0.16 52 1004.3
20260504014517 70 248 7.0 14.0 0.00 1.18 0.16 53 1004.5
20260504011517 70 231 10.0 13.0 0.00 1.18 0.16 56 1004.6
20260504004518 69 279 6.0 14.0 0.00 1.18 0.16 62 1004.8
20260504001517 68 252 3.0 8.0 0.00 1.18 0.16 65 1004.6
20260503234517 67 198 5.0 9.0 0.00 1.18 0.16 70 1004.3
20260503231516 66 255 3.0 7.0 0.00 1.18 0.16 73 1004.0
20260503224517 65 158 3.0 6.0 0.00 1.18 0.16 77 1003.8
20260503221517 65 176 6.0 8.0 0.00 1.18 0.16 78 1003.4
20260503214517 64 181 6.0 9.0 0.00 1.18 0.16 80 1002.9
20260503211516 63 135 2.0 6.0 0.00 1.18 0.16 83 1002.5
20260503204516 63 179 5.0 8.0 0.00 1.18 0.16 87 1002.0
20260503201517 63 198 5.0 9.0 0.01 1.18 0.16 93 1001.7
20260503194518 63 158 7.0 13.0 0.01 1.18 0.16 95 1001.3
20260503191516 63 117 1.0 1.0 0.00 1.17 0.15 96 1001.3
20260503184516 64 271 0.0 5.0 0.09 1.17 0.15 96 1000.6
20260503181517 64 177 1.0 3.0 0.09 1.17 0.15 96 1000.4
20260503174518 65 114 0.0 0.0 0.01 1.09 0.06 97 1000.0
20260503171518 65 115 0.0 0.0 0.00 1.08 0.06 97 999.3